Location: Deneb Observatory
(47.2267°N, 100.4953°W)
Time: 04:30:29
(UTC-05:00)

Iridium 66 - Visible Passes

Search period start: 29 April 2017 00:00
Search period end: 09 May 2017 00:00
Orbit: 776 x 779 km, 86.4° (Epoch: 27 April)

Date Brightness Start Highest point End Pass type
(mag) Time Alt. Az. Time Alt. Az. Time Alt. Az.
29 Apr 6.8 03:08:52 36° SE 03:10:20 46° E 03:15:19 10° NNE visible
29 Apr 7.3 04:49:21 20° WSW 04:51:17 25° WNW 04:55:34 10° NNW visible
30 Apr 7.6 02:35:29 23° ESE 02:37:01 27° E 02:41:21 10° NNE visible
30 Apr 6.6 04:15:57 33° WSW 04:17:31 42° W 04:22:29 10° N visible
01 May 8.2 02:02:06 14° E 02:03:49 16° ENE 02:06:54 10° NE visible
01 May 6.0 03:42:34 50° SSW 03:43:53 73° W 03:49:07 10° N visible
01 May 8.1 05:24:35 10° WNW 05:25:36 10° WNW 05:26:37 10° NW visible
02 May 6.2 03:09:10 49° SE 03:10:22 65° E 03:15:33 10° N visible
02 May 7.7 04:49:38 15° W 04:51:36 18° WNW 04:55:11 10° NNW visible
03 May 7.0 02:35:46 33° ESE 02:36:59 37° E 02:41:45 10° NNE visible
03 May 7.0 04:16:14 26° WSW 04:17:45 30° WNW 04:22:22 10° NNW visible
04 May 7.8 02:02:21 20° E 02:03:42 22° E 02:07:38 10° NNE visible
04 May 6.3 03:42:49 43° SW 03:44:02 52° W 03:49:09 10° N visible
05 May 8.3 01:28:56 11° E 01:30:33 13° ENE 01:32:46 10° NE visible
05 May 5.9 03:09:24 59° S 03:10:27 90° ENE 03:15:42 10° N visible
05 May 8.0 04:49:52 11° W 04:51:58 13° WNW 04:54:26 10° NW visible
06 May 6.5 02:35:58 45° SE 02:36:59 52° E 02:42:03 10° NNE visible
06 May 7.4 04:16:26 20° W 04:18:02 22° WNW 04:22:06 10° NNW visible
07 May 7.3 02:02:32 28° ESE 02:03:38 30° E 02:08:08 10° NNE visible
07 May 6.8 03:43:00 33° WSW 03:44:14 37° W 03:49:06 10° N visible
08 May 8.0 01:29:05 16° E 01:30:25 18° ENE 01:33:49 10° NE visible
08 May 6.1 03:09:33 53° SW 03:10:34 65° W 03:15:47 10° N visible
